TimePST,TemperatureF,Dew PointF,Humidity,Sea Level PressureIn,VisibilityMPH,Wind Direction,Wind SpeedMPH,Gust SpeedMPH,PrecipitationIn,Events,Conditions,WindDirDegrees,DateUTC
12:53 AM,35.1,33.1,92,30.03,10.0,Calm,Calm,-,N/A,,Clear,0,2013-03-08 08:53:00
1:53 AM,34.0,32.0,92,30.04,10.0,Calm,Calm,-,N/A,,Clear,0,2013-03-08 09:53:00
2:53 AM,33.1,30.9,92,30.03,10.0,Calm,Calm,-,N/A,,Clear,0,2013-03-08 10:53:00
3:06 AM,33.8,30.2,87,30.02,10.0,Calm,Calm,-,N/A,,Scattered Clouds,0,2013-03-08 11:06:00
3:14 AM,33.8,30.2,87,30.02,10.0,Calm,Calm,-,N/A,,Mostly Cloudy,0,2013-03-08 11:14:00
3:53 AM,34.0,33.1,96,30.03,8.0,Calm,Calm,-,N/A,,Overcast,0,2013-03-08 11:53:00
4:31 AM,33.8,33.8,100,30.03,1.8,South,3.5,-,N/A,,Overcast,170,2013-03-08 12:31:00
4:53 AM,34.0,34.0,100,30.04,2.5,SSE,3.5,-,N/A,,Overcast,160,2013-03-08 12:53:00
5:09 AM,33.8,33.8,100,30.03,4.0,Calm,Calm,-,N/A,,Overcast,0,2013-03-08 13:09:00
5:26 AM,35.6,35.6,100,30.03,1.8,Calm,Calm,-,N/A,,Overcast,0,2013-03-08 13:26:00
5:44 AM,35.6,33.8,93,30.04,2.5,Calm,Calm,-,N/A,,Overcast,0,2013-03-08 13:44:00
5:53 AM,35.1,35.1,100,30.05,3.0,Calm,Calm,-,N/A,,Overcast,0,2013-03-08 13:53:00
6:15 AM,35.6,35.6,100,30.04,1.8,Calm,Calm,-,N/A,,Overcast,0,2013-03-08 14:15:00
6:26 AM,35.6,35.6,100,30.05,0.5,Calm,Calm,-,N/A,Fog,Fog,0,2013-03-08 14:26:00
6:37 AM,35.6,35.6,100,30.05,0.2,Calm,Calm,-,N/A,Fog,Fog,0,2013-03-08 14:37:00
6:46 AM,35.6,35.6,100,30.05,0.5,Calm,Calm,-,N/A,Fog,Fog,0,2013-03-08 14:46:00
6:53 AM,35.1,35.1,100,30.06,0.8,Calm,Calm,-,N/A,,Mist,0,2013-03-08 14:53:00
7:30 AM,35.6,35.6,100,30.06,1.8,North,4.6,-,N/A,,Overcast,10,2013-03-08 15:30:00
7:43 AM,35.6,35.6,100,30.06,0.8,North,5.8,-,N/A,,Overcast,360,2013-03-08 15:43:00
7:53 AM,35.1,35.1,100,30.07,1.0,North,3.5,-,N/A,,Overcast,350,2013-03-08 15:53:00
8:37 AM,35.6,35.6,100,30.06,2.5,Calm,Calm,-,N/A,,Overcast,0,2013-03-08 16:37:00
8:53 AM,37.0,36.0,96,30.08,4.0,Calm,Calm,-,N/A,,Overcast,0,2013-03-08 16:53:00
9:45 AM,37.4,35.6,93,30.07,10.0,Calm,Calm,-,N/A,,Overcast,0,2013-03-08 17:45:00
9:53 AM,37.0,36.0,96,30.09,10.0,Calm,Calm,-,N/A,,Overcast,0,2013-03-08 17:53:00
10:25 AM,-9999,-9999,N/A,30.08,-9999.0,North,-9999.0,-,N/A,,Unknown,0,2013-03-08 18:25:00
10:53 AM,-9999,-9999,N/A,30.07,-9999.0,North,-9999.0,-,N/A,,Unknown,0,2013-03-08 18:53:00
11:53 AM,-9999,-9999,N/A,30.07,-9999.0,North,-9999.0,-,N/A,,Unknown,0,2013-03-08 19:53:00
12:13 PM,42.8,35.6,76,30.07,10.0,Variable,3.5,-,N/A,,Overcast,0,2013-03-08 20:13:00
12:43 PM,42.8,35.6,76,30.07,10.0,Calm,Calm,-,N/A,,Overcast,0,2013-03-08 20:43:00
12:53 PM,44.1,37.0,76,30.08,10.0,Calm,Calm,-,N/A,,Overcast,0,2013-03-08 20:53:00
1:33 PM,46.4,37.4,71,30.05,-9999.0,North,9.2,-,N/A,,Unknown,10,2013-03-08 21:33:00
1:53 PM,46.9,37.0,68,30.06,10.0,North,9.2,-,N/A,,Unknown,360,2013-03-08 21:53:00
2:30 PM,48.2,37.4,66,30.05,10.0,Variable,5.8,-,N/A,,Mostly Cloudy,0,2013-03-08 22:30:00
2:38 PM,48.2,37.4,66,30.05,10.0,North,4.6,-,N/A,,Scattered Clouds,350,2013-03-08 22:38:00
2:53 PM,48.0,37.9,68,30.06,10.0,North,6.9,-,N/A,,Scattered Clouds,360,2013-03-08 22:53:00
3:53 PM,48.9,37.9,66,30.06,10.0,NW,5.8,-,N/A,,Clear,320,2013-03-08 23:53:00
4:53 PM,51.1,37.9,61,30.07,10.0,North,6.9,-,N/A,,Clear,360,2013-03-09 00:53:00
5:53 PM,50.0,39.0,66,30.09,10.0,Calm,Calm,-,N/A,,Clear,0,2013-03-09 01:53:00
6:53 PM,46.0,39.0,76,30.12,10.0,Calm,Calm,-,N/A,,Clear,0,2013-03-09 02:53:00
7:53 PM,43.0,37.0,80,30.14,10.0,Calm,Calm,-,N/A,,Clear,0,2013-03-09 03:53:00
8:53 PM,41.0,37.0,86,30.17,10.0,Calm,Calm,-,N/A,,Clear,0,2013-03-09 04:53:00
9:53 PM,39.0,36.0,89,30.20,10.0,North,3.5,-,N/A,,Clear,350,2013-03-09 05:53:00
10:53 PM,37.9,35.1,89,30.20,10.0,Calm,Calm,-,N/A,,Clear,0,2013-03-09 06:53:00
11:53 PM,36.0,34.0,93,30.22,8.0,Calm,Calm,-,N/A,,Clear,0,2013-03-09 07:53:00